{"data":{"norad_id":60257,"intl_designator":"2024-131C","name":"STARLINK-32166","alt_names":[],"object_type":"PAYLOAD","status":"ACTIVE","operator":null,"country":"US","launch_date":"2024-07-27","launch_site_code":"AFETR","launch_vehicle":null,"mission":null,"orbit_class":"UNKNOWN","rcs_meters":null,"size_class":null,"mass_kg":null,"dimensions":null,"purposes":["comms"],"wikipedia_slug":null,"has_3d_model":false,"image_url":null,"decayed_at":null,"tle_current":{"epoch":"2026-09-21T21:43:19.184160Z","epoch_age_seconds":60449,"freshness":"FRESH","line1":"1 60257U 24131C   26264.90508315 -.00007182  00000+0 -20149-3 0  9990","line2":"2 60257  53.1604 219.3628 0002105  92.6536 267.4707 15.34417511121785","mean_motion":15.34417511,"eccentricity":0.0002105,"inclination_deg":53.1604,"raan_deg":219.3628,"arg_perigee_deg":92.6536,"mean_anomaly_deg":267.4707,"bstar":-0.00020149,"rev_number":12178,"period_min":93.846687076813,"perigee_km":461.21120840489,"apogee_km":464.0911802347,"semimajor_km":6840.7881943198,"source":"CELESTRAK","updated_at":"2026-09-22T09:00:49.186421Z"}}}